Location: Ar Ranvel
(48.3000°N, 4.8833°W)
Time: 22:22:22
(UTC+00:00)

Meteor 2-10 Rocket - Pass Details

Date: 02 November 2021
Orbit: 733 x 885 km, 81.2° (Epoch: 30 November)

Event Time Altitude Azimuth Distance (km) Brightness Sun altitude
Rises 04:06:31 0° 352° (N) 3,180 6.8 -30.3°
Reaches altitude 10° 04:08:56 10° 357° (N) 2,249 6.0 -29.9°
Maximum altitude 04:13:49 51° 74° (ENE) 927 4.2 -29.1°
Drops below altitude 10° 04:18:43 10° 150° (SSE) 2,252 6.1 -28.3°
Sets 04:21:07 0° 155° (SSE) 3,185 6.9 -27.9°
